DW9106 Madrid ES current weather conditions

sailwx.info

Wind from 028 at 2 knots gusting 8

Air temperature 16.7° C
Dewpoint 8.6° C

Last reported at 2014-Oct-25 03:37 UTC.
Time now 2014-Oct-25 05:43 UTC

Location: N 40°23' W 003°38'.
View on Google Maps.

See reports from other nearby stations

  
Tides and Currents Weather Stations Pressure Air Temp Water Temp Dewpoint Dewpoint Depression Visibility Wind Speed Wind Dir Waves Ship Positions
date/time (UTC)wind fromknots sea level pressurealtimeterstation pressurevisibilityair tempwater tempwave heightnotes
2014-Oct-25 03:37 028 2 gusting 8 16.7
2014-Oct-25 03:22 027 1 gusting 5 16.7
2014-Oct-25 03:07 042 2 gusting 5 16.7
2014-Oct-25 02:52 061 2 gusting 6 17.2
2014-Oct-25 02:37 078 2 gusting 7 17.2
2014-Oct-25 02:22 015 2 gusting 6 17.2
2014-Oct-25 02:07 062 3 gusting 6 17.8
2014-Oct-25 01:52 047 3 gusting 8 17.8
2014-Oct-25 01:37 046 4 gusting 7 17.8
2014-Oct-25 01:22 057 2 gusting 6 18.3
2014-Oct-25 01:07 051 2 gusting 6 18.3
2014-Oct-25 00:52 043 4 gusting 7 18.3
2014-Oct-25 00:37 015 4 gusting 8 18.9
2014-Oct-25 00:22 057 4 gusting 10 18.9
2014-Oct-25 00:07 034 4 gusting 9 18.9
2014-Oct-24 23:52 054 5 gusting 9 18.9
2014-Oct-24 23:36 049 6 gusting 11 18.9
2014-Oct-24 23:21 045 6 gusting 10 18.9
2014-Oct-24 23:06 073 3 gusting 9 18.9
2014-Oct-24 22:51 034 6 gusting 9 19.4
2014-Oct-24 22:36 060 5 gusting 10 19.4
2014-Oct-24 22:21 034 6 gusting 10 20.0
2014-Oct-24 22:06 046 5 gusting 9 20.0
2014-Oct-24 21:51 040 5 gusting 10 20.0
2014-Oct-24 21:36 030 6 gusting 12 20.0
2014-Oct-24 21:21 040 6 gusting 10 20.0
2014-Oct-24 21:06 025 4 gusting 10 20.0
2014-Oct-24 20:51 042 4 gusting 8 20.0
2014-Oct-24 20:36 049 4 gusting 8 20.0
2014-Oct-24 20:21 042 4 gusting 8 20.6
2014-Oct-24 20:06 049 2 gusting 9 20.6
2014-Oct-24 19:51 032 4 gusting 10 21.1
2014-Oct-24 19:36 019 3 gusting 6 21.1
2014-Oct-24 19:21 060 3 gusting 7 21.7
2014-Oct-24 19:06 059 3 gusting 6 22.2
2014-Oct-24 18:51 048 3 gusting 7 22.2
2014-Oct-24 18:36 053 2 gusting 6 22.8
2014-Oct-24 18:21 050 2 gusting 6 22.8
2014-Oct-24 18:06 042 1 gusting 5 23.3
2014-Oct-24 17:51 037 2 gusting 6 23.9
2014-Oct-24 17:36 033 2 gusting 5 23.9
2014-Oct-24 17:21 044 1 gusting 5 24.4
2014-Oct-24 17:06 044 2 gusting 6 25.0
2014-Oct-24 16:51 059 2 gusting 6 25.6
2014-Oct-24 16:36 040 2 gusting 6 25.6
2014-Oct-24 16:21 046 2 gusting 6 26.1
2014-Oct-24 16:06 042 3 gusting 7 26.1
2014-Oct-24 15:51 079 5 gusting 11 26.1
2014-Oct-24 15:36 019 6 gusting 10 26.7
2014-Oct-24 15:21 005 4 gusting 10 26.7
2014-Oct-24 15:06 107 5 gusting 10 26.7
2014-Oct-24 14:51 029 5 gusting 11 26.7
2014-Oct-24 14:06 046 6 gusting 14 26.7
2014-Oct-24 13:51 067 6 gusting 13 26.7
2014-Oct-24 13:36 048 5 gusting 12 26.7
2014-Oct-24 13:21 048 3 gusting 6 25.6
2014-Oct-24 13:06 036 3 gusting 7 25.6
2014-Oct-24 12:51 127 3 gusting 8 25.6
2014-Oct-24 12:36 061 4 gusting 7 25.0
2014-Oct-24 12:21 110 2 gusting 7 24.4
2014-Oct-24 12:06 091 2 gusting 4 24.4
2014-Oct-24 11:51 118 24.4
2014-Oct-24 11:36 225 23.3
2014-Oct-24 11:21 187 22.8
2014-Oct-24 11:06 100 22.2
2014-Oct-24 10:50 133 22.8
2014-Oct-24 10:35 113 22.2
2014-Oct-24 10:20 131 22.2
2014-Oct-24 10:05 171 21.1
2014-Oct-24 09:50 199 0 gusting 3 20.6
2014-Oct-24 09:35 170 0 gusting 2 20.6
2014-Oct-24 09:20 077 20.0
2014-Oct-24 09:05 073 19.4
2014-Oct-24 08:50 048 19.4
2014-Oct-24 08:35 038 0 gusting 1 19.4
2014-Oct-24 08:20 038 19.4
2014-Oct-24 08:05 038 17.8
2014-Oct-24 07:50 038 16.7
2014-Oct-24 07:35 038 15.0
2014-Oct-24 07:20 038 14.4
2014-Oct-24 07:05 038 13.9
2014-Oct-24 06:49 038 13.3
2014-Oct-24 06:34 038 13.9
2014-Oct-24 06:19 038 13.3
2014-Oct-24 06:04 038 13.9
2014-Oct-24 05:49 038 13.9
2014-Oct-24 05:34 038 13.9
2014-Oct-24 05:19 038 13.9
2014-Oct-24 05:04 038 14.4
2014-Oct-24 04:49 038 14.4
2014-Oct-24 04:34 038 14.4
2014-Oct-24 04:19 038 15.0
2014-Oct-24 04:04 038 15.0
2014-Oct-24 03:49 038 15.6
2014-Oct-24 03:34 038 16.1
2014-Oct-24 03:19 286 16.1
2014-Oct-24 03:04 041 16.1
2014-Oct-24 02:49 041 16.1
2014-Oct-24 02:34 061 16.1
2014-Oct-24 02:19 044 16.7
2014-Oct-24 02:04 067 0 gusting 3 16.7
2014-Oct-24 01:49 038 0 gusting 3 17.2
2014-Oct-24 01:34 065 0 gusting 4 16.7
2014-Oct-24 01:19 039 16.7
2014-Oct-24 01:04 046 17.2
2014-Oct-24 00:49 045 0 gusting 2 17.8
2014-Oct-24 00:34 060 17.2
2014-Oct-24 00:19 055 17.2
2014-Oct-24 00:04 059 1 gusting 4 17.8
2014-Oct-23 23:49 067 1 gusting 4 17.8
2014-Oct-23 23:34 036 17.8
2014-Oct-23 23:19 054 0 gusting 3 18.3
2014-Oct-23 23:04 042 0 gusting 4 18.3
2014-Oct-23 22:49 034 0 gusting 2 17.8
2014-Oct-23 22:34 079 17.8
2014-Oct-23 22:19 040 17.8
2014-Oct-23 22:04 042 17.8
2014-Oct-23 21:49 040 17.8
2014-Oct-23 21:34 039 0 gusting 2 17.2
2014-Oct-23 21:19 039 17.8
2014-Oct-23 21:04 039 18.3
2014-Oct-23 20:49 039 18.9
2014-Oct-23 20:34 039 19.4
2014-Oct-23 20:19 033 1 gusting 3 19.4
2014-Oct-23 20:04 046 0 gusting 4 19.4
2014-Oct-23 19:49 061 1 gusting 3 20.0
2014-Oct-23 19:33 038 20.6
2014-Oct-23 19:18 053 20.6
2014-Oct-23 19:03 049 21.1
2014-Oct-23 18:48 036 0 gusting 4 21.1
2014-Oct-23 18:18 038 1 gusting 6 21.7
2014-Oct-23 18:03 315 1 gusting 4 21.7
2014-Oct-23 17:48 072 1 gusting 4 22.2
2014-Oct-23 17:33 048 2 gusting 6 22.8
2014-Oct-23 17:18 023 3 gusting 6 22.8
2014-Oct-23 17:03 030 2 gusting 6 23.3
2014-Oct-23 16:48 062 0 gusting 6 23.9
2014-Oct-23 16:33 112 3 gusting 7 23.9
2014-Oct-23 16:18 061 0 gusting 8 24.4
2014-Oct-23 16:03 057 0 gusting 5 25.0
2014-Oct-23 15:48 100 25.6
2014-Oct-23 15:33 076 25.6
2014-Oct-23 15:18 218 26.1
2014-Oct-23 15:03 256 2 gusting 5 26.1
2014-Oct-23 14:48 267 26.1
2014-Oct-23 14:33 250 26.1
2014-Oct-23 14:18 276 0 gusting 4 26.1
2014-Oct-23 14:03 269 0 gusting 3 26.1
2014-Oct-23 13:48 180 25.6
2014-Oct-23 13:33 290 0 gusting 4 25.0
2014-Oct-23 13:18 260 0 gusting 5 25.0
2014-Oct-23 13:03 169 0 gusting 4 24.4
2014-Oct-23 12:48 273 0 gusting 4 23.9
2014-Oct-23 12:33 262 23.9
2014-Oct-23 12:18 276 0 gusting 2 23.9
2014-Oct-23 12:03 181 22.8
2014-Oct-23 11:48 248 0 gusting 3 22.8
2014-Oct-23 11:33 257 0 gusting 3 22.8
2014-Oct-23 11:18 247 0 gusting 3 22.2
2014-Oct-23 11:03 063 21.1
2014-Oct-23 10:47 051 20.0
2014-Oct-23 10:32 083 1 gusting 3 19.4
2014-Oct-23 10:17 049 0 gusting 4 18.3
2014-Oct-23 10:02 044 2 gusting 4 18.3
2014-Oct-23 09:47 029 0 gusting 4 18.3
2014-Oct-23 09:32 060 1 gusting 4 17.8
2014-Oct-23 09:17 044 0 gusting 3 17.2
2014-Oct-23 09:02 005 0 gusting 3 15.6
2014-Oct-23 08:47 069 1 gusting 4 14.4
2014-Oct-23 08:32 066 2 gusting 5 15.0
2014-Oct-23 08:17 086 3 gusting 6 15.0
2014-Oct-23 08:02 037 0 gusting 3 15.0
2014-Oct-23 07:47 020 13.9
2014-Oct-23 07:32 020 12.8
2014-Oct-23 07:17 020 11.7
2014-Oct-23 07:02 020 11.1
2014-Oct-23 06:47 020 10.6
2014-Oct-23 06:32 020 10.6
2014-Oct-23 06:17 298 10.6
2014-Oct-23 06:02 276 10.0
2014-Oct-23 05:47 276 10.0
2014-Oct-23 05:32 276 10.0
2014-Oct-23 05:17 276 10.0
2014-Oct-23 05:02 276 10.6